Index of /drivers/DGM/
../
SMDDevice 19-Mar-2026 04:31 12089472
a2000.zip 30-Apr-2026 09:55 81734
abb_et.zip 30-Apr-2026 09:55 98601
abb_m1m.zip 30-Apr-2026 09:55 79881
ac_su.zip 30-Apr-2026 09:55 3003
ac_v2.zip 30-Apr-2026 09:55 81632
access4000x.zip 30-Apr-2026 09:55 83897
acintrudedc.zip 30-Apr-2026 09:55 1380
acm03u1.zip 30-Apr-2026 09:55 90898
acpowersaver_temperature.zip 30-Apr-2026 09:55 1238
acrel_aem.zip 30-Apr-2026 09:55 81440
acrel_pz.zip 19-Mar-2026 06:26 97647
acrelacr.zip 30-Apr-2026 09:55 79276
acrelamc.zip 30-Apr-2026 09:55 78156
acreldtsd1352.zip 30-Apr-2026 09:55 88200
acrelpz72l.zip 30-Apr-2026 09:55 78334
aeg_ms10m.zip 30-Apr-2026 09:55 82470
aeg_ms10se.zip 30-Apr-2026 09:55 82196
agc150.zip 30-Apr-2026 09:55 82560
ai_general_temp_humid.zip 30-Apr-2026 09:55 81905
ai_water2.zip 30-Apr-2026 09:55 79501
aigeneralshaper.zip 30-Apr-2026 09:55 92047
airsys.zip 30-Apr-2026 09:55 91829
akshuayibump.zip 30-Apr-2026 09:55 90655
akshuayibump2.zip 30-Apr-2026 09:55 89519
akshuayiliejianac.zip 30-Apr-2026 09:55 95312
am5set.zip 30-Apr-2026 09:55 82801
amc100.zip 30-Apr-2026 09:55 107394
amc16z_1dc.zip 30-Apr-2026 09:55 79465
amc16z_2ac.zip 30-Apr-2026 09:55 87960
amc16z_2dc.zip 30-Apr-2026 09:55 93786
amc72_96.zip 30-Apr-2026 09:55 86267
amf20.zip 30-Apr-2026 09:55 92137
amf25.zip 30-Apr-2026 09:55 87249
arcm200l.zip 30-Apr-2026 09:55 1460
ascb1.zip 30-Apr-2026 09:55 80198
ascoc600.zip 30-Apr-2026 09:55 84096
babangmeter.zip 30-Apr-2026 09:55 78219
bat61cj.zip 30-Apr-2026 09:55 82545
battery24_voltage.zip 30-Apr-2026 09:55 1846
battery2v_32.zip 30-Apr-2026 09:55 247689
battery_24.zip 30-Apr-2026 09:55 3810
battery_32.zip 30-Apr-2026 09:55 245446
batterycurrent4_20_n100_100.zip 30-Apr-2026 09:55 76587
batteryvoltage4_20.zip 30-Apr-2026 09:55 76226
bepmw2800.zip 30-Apr-2026 09:55 78292
bmu24.zip 30-Apr-2026 09:55 2312
bt_48dc.zip 30-Apr-2026 09:55 84367
bt_s80_a3_cbah01_b14.zip 30-Apr-2026 09:55 98752
bt_venv.zip 30-Apr-2026 09:55 93136
btbacnetleng.zip 30-Apr-2026 09:55 92896
btbacnetleng1.zip 30-Apr-2026 09:55 89482
btbacnetleng170.zip 30-Apr-2026 09:55 95407
btbacnetleng171_172.zip 30-Apr-2026 09:55 82799
btbacnetleng173_174_175.zip 30-Apr-2026 09:55 83248
btbacnetleng176_177.zip 30-Apr-2026 09:55 83057
btbat2000.zip 30-Apr-2026 09:55 101506
btbat2000_2.zip 30-Apr-2026 09:55 100888
btfengjidi.zip 02-Dec-2025 13:11 87480
bthengshiji.zip 30-Apr-2026 09:55 76876
bwdk326.zip 30-Apr-2026 09:55 82383
bzcdoorsensor.zip 30-Apr-2026 09:55 84786
c2000_a2_sdxa000_ax1.zip 30-Apr-2026 09:55 85825
camera.zip 30-Apr-2026 09:55 4151
canatal.zip 30-Apr-2026 09:55 91967
canatal_ms1554.zip 30-Apr-2026 09:55 92201
cavt.zip 30-Apr-2026 09:55 93783
cdq1s.zip 30-Apr-2026 09:55 88664
championups.zip 30-Apr-2026 09:55 235239
changjiyuncang.zip 30-Apr-2026 09:55 102904
changjiyuncang20.zip 30-Apr-2026 09:55 103742
climavenetaac.zip 30-Apr-2026 09:55 81400
cm02n600a0.zip 30-Apr-2026 09:55 91923
cmplus.zip 30-Apr-2026 09:55 89558
cms200.zip 30-Apr-2026 09:55 3035
cphp2200.zip 30-Apr-2026 09:55 1887
cpm1350.zip 30-Apr-2026 09:55 87128
cpm3310.zip 30-Apr-2026 09:55 80434
cscp_419.zip 30-Apr-2026 09:55 122488
ctdg_ac.zip 30-Apr-2026 09:55 82806
cuc01h.zip 30-Apr-2026 09:55 93934
cuc01hc.zip 30-Apr-2026 09:55 325358
cuc01hc_419.zip 30-Apr-2026 09:55 119269
cuc0609h.zip 30-Apr-2026 09:55 515
cuc0609h_419.zip 30-Apr-2026 09:55 120803
cuc2000hi.zip 30-Apr-2026 09:55 95051
cuc21vb.zip 30-Apr-2026 09:55 172908
cws19_temperature_sp2.zip 30-Apr-2026 09:55 1295
cybermateevo.zip 30-Apr-2026 09:55 81070
cypd10a.zip 30-Apr-2026 09:55 83032
daneng6000.zip 30-Apr-2026 09:55 80363
datamate3000.zip 30-Apr-2026 09:55 90703
db4610.zip 30-Apr-2026 09:55 90982
dc4xdmk3.zip 30-Apr-2026 09:55 92114
dc5x.zip 02-Dec-2025 10:05 93508
dcm3366.zip 30-Apr-2026 09:55 82800
dcm3366d_w1.zip 30-Apr-2026 09:55 78257
dcm3366m_12_w1.zip 30-Apr-2026 09:55 80354
dcm3366ph241s.zip 11-Nov-2024 08:55 80179
dcm3366q.zip 30-Apr-2026 09:55 77499
dds3366m_w1.zip 30-Apr-2026 09:55 78401
debil64dido.zip 30-Apr-2026 09:55 811
deif_h2.zip 30-Apr-2026 09:55 91247
delta_240_rc.zip 30-Apr-2026 09:55 94377
delta_adc380_200.zip 30-Apr-2026 09:55 89963
delta_dps_h.zip 30-Apr-2026 09:55 82017
deltahav36a.zip 30-Apr-2026 09:55 2591
deltahift.zip 30-Apr-2026 09:55 80453
deltanhnt.zip 30-Apr-2026 09:55 120000
deltant.zip 30-Apr-2026 09:55 2537
dfpm93.zip 15-Mar-2025 09:38 94074
diris_a40.zip 30-Apr-2026 09:55 81230
djddsd.zip 30-Apr-2026 09:55 81409
dk04.zip 30-Apr-2026 09:55 6797
dk04c.zip 30-Apr-2026 09:55 6216
dk09.zip 30-Apr-2026 09:55 90834
dkd46.zip 30-Apr-2026 09:55 111235
dkd46_419.zip 30-Apr-2026 09:55 125467
dm2300.zip 30-Apr-2026 09:55 82247
doctrl.zip 30-Apr-2026 09:55 79490
door_ms899_v5.zip 30-Apr-2026 09:55 84974
doorsensor.zip 30-Apr-2026 09:55 80695
doorxjl.zip 30-Apr-2026 09:55 2217
doorxjlb.zip 15-Sep-2025 09:15 192631
dpjg1k.zip 12-Jul-2024 09:32 80992
dpm8600.zip 30-Apr-2026 09:55 77684
dpu_dkln.zip 30-Apr-2026 09:55 80179
dse5210.zip 30-Apr-2026 09:55 88622
dse7310.zip 30-Apr-2026 09:55 88548
dts100.zip 30-Apr-2026 09:55 85207
dts541.zip 30-Apr-2026 09:55 81849
dts541s.zip 30-Apr-2026 09:55 80700
dtsd3366d.zip 30-Apr-2026 09:55 95943
dtsd3366m4.zip 30-Apr-2026 09:55 99568
dtsd3366p4.zip 30-Apr-2026 09:55 84645
dv11_r2.zip 30-Apr-2026 09:55 78817
ea86.zip 30-Apr-2026 09:55 2236
eagle600.zip 30-Apr-2026 09:55 80750
eatonups9390.zip 30-Apr-2026 09:55 4901
ecm2000.zip 30-Apr-2026 09:55 86450
em300.zip 30-Apr-2026 09:55 78990
em400.zip 30-Apr-2026 09:55 83745
engine6.zip 30-Apr-2026 09:55 181928
epm600k.zip 30-Apr-2026 09:55 95466
et903.zip 30-Apr-2026 09:55 93580
et903e.zip 30-Apr-2026 09:55 87898
evocybermatedx.zip 16-Jan-2025 05:51 93940
evocybermatedxmodbus.zip 30-Apr-2026 09:55 86363
evou4xrowcw.zip 30-Apr-2026 09:55 99217
evou4xrowdx.zip 30-Apr-2026 09:55 96596
ex8_33.zip 30-Apr-2026 09:55 81737
exm2ups.zip 13-Jun-2024 06:01 88411
fansensor.zip 30-Apr-2026 09:55 1633
fc102.zip 30-Apr-2026 09:55 81529
fengji1.zip 30-Apr-2026 09:55 89106
fengji2.zip 30-Apr-2026 09:55 86934
fkdpc100ej.zip 30-Apr-2026 09:55 77294
fourseaats.zip 30-Apr-2026 09:55 2114
fresh_air.zip 30-Apr-2026 09:55 82724
ganshi_temperature.zip 30-Apr-2026 09:55 79063
gassensor.zip 30-Apr-2026 09:55 80770
geats.zip 30-Apr-2026 09:55 80179
general_temp_humid.zip 30-Apr-2026 09:55 105671
general_temp_humidb.zip 30-Apr-2026 09:55 104888
glassbroken.zip 30-Apr-2026 09:55 76878
gm6650dc.zip 30-Apr-2026 09:55 93899
gree.zip 30-Apr-2026 09:55 82703
greebmsac.zip 30-Apr-2026 09:55 90268
greejkf20cnnab.zip 30-Apr-2026 09:55 93823
greestationac.zip 30-Apr-2026 09:55 90549
gstinet03.zip 30-Apr-2026 09:55 70289
gtr85.zip 30-Apr-2026 09:55 90797
gu320a.zip 30-Apr-2026 09:55 83749
gu631a.zip 30-Apr-2026 09:55 88370
h2sensor.zip 30-Apr-2026 09:55 79476
h3gta.zip 30-Apr-2026 09:55 85473
h3gtabatterybalancer160.zip 30-Apr-2026 09:55 116729
h3gtc.zip 30-Apr-2026 09:55 84472
haihong.zip 30-Apr-2026 09:55 88189
haiwu.zip 30-Apr-2026 09:55 93961
haiwucsaf.zip 13-Nov-2024 07:04 97914
hanguang4pac.zip 24-Jun-2025 01:24 77423
hanguang4pdc.zip 30-Apr-2026 09:55 76418
hat400.zip 30-Apr-2026 09:55 82540
hat500.zip 30-Apr-2026 09:55 83193
hat600.zip 30-Apr-2026 09:55 83526
hbzs96k.zip 30-Apr-2026 09:55 79853
hc33.zip 30-Apr-2026 09:55 82767
hcccs03.zip 30-Apr-2026 09:55 82634
hds_sbms.zip 30-Apr-2026 09:55 91281
hgc300.zip 23-Jan-2026 07:07 93722
hgm6100.zip 30-Apr-2026 09:55 85205
hgm9300.zip 30-Apr-2026 09:55 90383
hgm9420n.zip 30-Apr-2026 09:55 102673
hgxy_sps.zip 30-Apr-2026 09:55 101257
hgxy_sps_tower.zip 30-Apr-2026 09:55 85908
hipulseu.zip 30-Apr-2026 09:55 87651
hisense.zip 30-Apr-2026 09:55 91608
hisense_v3.zip 30-Apr-2026 09:55 2411
hisenses.zip 30-Apr-2026 09:55 93753
hiwave_ac.zip 30-Apr-2026 09:55 102900
hongyindz.zip 30-Apr-2026 09:55 78625
hr_rtu_jg.zip 30-Apr-2026 09:55 95370
huaweilibattery.zip 30-Apr-2026 09:55 86336
huayizfsltianjinlu.zip 30-Apr-2026 09:55 80670
humid.zip 30-Apr-2026 09:55 2173
humid2.zip 30-Apr-2026 09:55 75849
humid303mini.zip 30-Apr-2026 09:55 1244
humid_sp.zip 30-Apr-2026 09:55 78570
humid_sp2.zip 30-Apr-2026 09:55 80266
hvdc.zip 30-Apr-2026 09:55 95193
hvdy.zip 30-Apr-2026 09:55 90543
hzjk01b.zip 30-Apr-2026 09:55 82718
icntmint.zip 30-Apr-2026 09:55 85396
igntc.zip 30-Apr-2026 09:55 103548
il4amf25.zip 30-Apr-2026 09:55 90825
il4mrs16.zip 30-Apr-2026 09:55 89882
infraredgrating.zip 30-Apr-2026 09:55 75845
infraredsensor.zip 30-Apr-2026 09:55 77450
innotemperature.zip 30-Apr-2026 09:55 78163
ita.zip 30-Apr-2026 09:55 88156
iteaq88005274.zip 24-Jan-2025 09:42 89450
iteaqcoolfree14.zip 30-Apr-2026 09:55 98725
iteaqcoolrow5000.zip 23-Aug-2024 07:50 81445
iteaqcoolsmart.zip 30-Apr-2026 09:55 88372
iteaqsbms.zip 15-Jan-2025 06:59 84648
iteaqups.zip 30-Apr-2026 09:55 103493
iteaqupsur.zip 30-Apr-2026 09:55 89707
jbatterybalancer.zip 30-Apr-2026 09:55 2452
jbatterybalancer160.zip 30-Apr-2026 09:55 79070
jbatterycontroller.zip 30-Apr-2026 09:55 3182
jbms.zip 30-Apr-2026 09:55 5558
jbms_d.zip 30-Apr-2026 09:55 82043
jbms_e.zip 30-Apr-2026 09:55 84872
jdrk_rssj_6h.zip 04-Jan-2026 03:38 84848
jgctemperature24.zip 30-Apr-2026 09:55 84459
jigui_bms.zip 30-Apr-2026 09:55 78534
jk070sw.zip 30-Apr-2026 09:55 2072
jpmc.zip 30-Apr-2026 09:55 94502
jxbs3001h2.zip 21-Aug-2024 15:55 75472
jxbs3001h2s.zip 30-Apr-2026 09:55 76844
jzl485.zip 30-Apr-2026 09:55 87641
jzlbtse.zip 30-Apr-2026 09:55 92398
jzlcharger.zip 30-Apr-2026 09:55 2454
jzlcharger2.zip 30-Apr-2026 09:55 1340
jzlcharger3.zip 30-Apr-2026 09:55 81481
jzlchargerfsbfbi.zip 30-Apr-2026 09:55 84704
jzlkd.zip 30-Apr-2026 09:55 77512
jzlmcc.zip 30-Apr-2026 09:55 1270
jzlvolcur.zip 30-Apr-2026 09:55 76927
k200.zip 30-Apr-2026 09:55 88136
kddsv22.zip 30-Apr-2026 09:55 191709
kelongmr33m.zip 30-Apr-2026 09:55 95572
kn10.zip 30-Apr-2026 09:55 95192
kstar_ups_megatec.zip 30-Apr-2026 09:55 110836
kstarmatrixair.zip 02-Dec-2024 08:44 85520
kstarups.zip 30-Apr-2026 09:55 114633
kstarupsbt.zip 30-Apr-2026 09:55 109249
libvdevice.so 19-Mar-2026 04:30 2984612
liebert_pex.zip 30-Apr-2026 09:55 87528
liebert_ups.zip 30-Apr-2026 09:55 4037
lkwenshidu.zip 21-Aug-2024 15:55 75286
ltech_engine.zip 30-Apr-2026 09:55 79390
m500f.zip 30-Apr-2026 09:55 1036
m520s.zip 30-Apr-2026 09:55 1036
m522s.zip 30-Apr-2026 09:55 3887
m522s_419.zip 30-Apr-2026 09:55 124846
m810g.zip 30-Apr-2026 09:55 878
m810g_419.zip 30-Apr-2026 09:55 128146
m816.zip 30-Apr-2026 09:55 83903
m822e.zip 30-Apr-2026 09:55 122711
ma01c.zip 30-Apr-2026 09:55 117579
ma01dh.zip 30-Apr-2026 09:55 84376
ma01dl.zip 21-Oct-2024 05:38 91810
mainverter.zip 30-Apr-2026 09:55 1582
mapowermeter.zip 30-Apr-2026 09:55 1659
mars16.zip 30-Apr-2026 09:55 87279
mb5000l.zip 30-Apr-2026 09:55 89081
mc2600.zip 30-Apr-2026 09:55 88629
mcgs.zip 30-Apr-2026 09:55 86184
mcgs_1aa1.zip 30-Apr-2026 09:55 85307
mcgs_1au1.zip 30-Apr-2026 09:55 2814
mcgs_3au1.zip 30-Apr-2026 09:55 78580
mcgs_3au3.zip 30-Apr-2026 09:55 83053
mcs1800.zip 30-Apr-2026 09:55 297955
mcs1800a.zip 30-Apr-2026 09:55 325722
mcs6000.zip 30-Apr-2026 09:55 7110
mcs_fc3.zip 30-Apr-2026 09:55 91568
mdq_stb1_125.zip 30-Apr-2026 09:55 81114
mdtx_sc100e.zip 30-Apr-2026 09:55 92194
mdtx_sc100e_4.zip 30-Apr-2026 09:55 90324
mec048_h42c0.zip 30-Apr-2026 09:55 107289
mec10.zip 30-Apr-2026 09:55 1536
mec2x.zip 30-Apr-2026 09:55 93630
media_ac.zip 30-Apr-2026 09:55 84447
media_dcm.zip 30-Apr-2026 09:55 89346
mediamav.zip 30-Apr-2026 09:55 100065
mediamavb.zip 10-Feb-2025 06:51 97721
mediasaf.zip 30-Apr-2026 09:55 84712
met05_ac8.zip 30-Apr-2026 09:55 83619
meterdm2300n.zip 14-Jan-2025 09:56 78502
mindsecdps4d08.zip 30-Apr-2026 09:55 92236
modbus_bd330.zip 30-Apr-2026 09:55 71267
modbus_db600.zip 30-Apr-2026 09:55 72000
modbus_epower.zip 30-Apr-2026 09:55 2486
modbus_hisense.zip 30-Apr-2026 09:55 78191
modbus_md500.zip 30-Apr-2026 09:55 73091
modbus_vertiv_ac.zip 30-Apr-2026 09:55 89826
motor_battery.zip 30-Apr-2026 09:55 77167
motor_battery12.zip 30-Apr-2026 09:55 75347
mrs16l4.zip 30-Apr-2026 09:55 83912
ms10.zip 30-Apr-2026 09:55 86293
ms10fg.zip 30-Apr-2026 09:55 96965
ms19mb.zip 30-Apr-2026 09:55 91274
ms20.zip 30-Apr-2026 09:55 117095
mt_ghj.zip 30-Apr-2026 09:55 79773
multiinstrument.zip 30-Apr-2026 09:55 79773
multism18.zip 30-Apr-2026 09:55 80512
nb_temperature.zip 30-Apr-2026 09:55 2704
ndq5.zip 30-Apr-2026 09:55 80476
nes96xx.zip 30-Apr-2026 09:55 81533
nlk8do.zip 30-Apr-2026 09:55 2240
np9801.zip 30-Apr-2026 09:55 126303
ntc_temperature.zip 30-Apr-2026 09:55 68760
nxr.zip 30-Apr-2026 09:55 88765
p127.zip 30-Apr-2026 09:55 80972
p4gs0207cm.zip 30-Apr-2026 09:55 85512
pa194i.zip 30-Apr-2026 09:55 80265
pa194u.zip 30-Apr-2026 09:55 1309
pa2000.zip 30-Apr-2026 09:55 82418
pcc2110.zip 30-Apr-2026 09:55 84479
pd1688z.zip 30-Apr-2026 09:55 81468
pd194e.zip 30-Apr-2026 09:55 81429
pd194ui.zip 30-Apr-2026 09:55 80411
pd195ze31.zip 30-Apr-2026 09:55 80215
pd510.zip 30-Apr-2026 09:55 81992
pd606.zip 30-Apr-2026 09:55 87782
pdu8000.zip 30-Apr-2026 09:55 94381
pex3dx.zip 30-Apr-2026 09:55 87768
pex4s.zip 30-Apr-2026 09:55 98024
pexap.zip 30-Apr-2026 09:55 89349
pilotspm206.zip 12-Sep-2024 06:51 81200
pm25.zip 30-Apr-2026 09:55 1895
pm25v2.zip 30-Apr-2026 09:55 78132
pm4s.zip 30-Apr-2026 09:55 91372
pm5350.zip 30-Apr-2026 09:55 81965
pm550.zip 30-Apr-2026 09:55 79059
pmac203.zip 30-Apr-2026 09:55 94403
pmac600_a.zip 30-Apr-2026 09:55 78909
pmac600_b.zip 30-Apr-2026 09:55 79287
pmac625.zip 30-Apr-2026 09:55 93275
pmac720.zip 30-Apr-2026 09:55 98703
pmac910.zip 30-Apr-2026 09:55 78890
pmacs963e.zip 30-Apr-2026 09:55 79031
pmc33x.zip 30-Apr-2026 09:55 93840
pmc630s.zip 30-Apr-2026 09:55 81423
pmchmi.zip 30-Apr-2026 09:55 91913
pmchmi_dc.zip 30-Apr-2026 09:55 90086
pmf632b.zip 30-Apr-2026 09:55 85342
pmf720y.zip 30-Apr-2026 09:55 84055
pmf910l.zip 30-Apr-2026 09:55 90300
pmhiwave.zip 30-Apr-2026 09:55 94788
pmtowerdoor.zip 30-Apr-2026 09:55 84365
pmu400.zip 30-Apr-2026 09:55 81150
pmu500.zip 30-Apr-2026 09:55 81564
pmw2800.zip 30-Apr-2026 09:55 97220
power_302a.zip 30-Apr-2026 09:55 88537
powercommand33.zip 30-Apr-2026 09:55 84119
powermeter_leak.zip 30-Apr-2026 09:55 68035
powerwizard.zip 30-Apr-2026 09:55 84412
prsh2.zip 30-Apr-2026 09:55 77364
psm15a.zip 30-Apr-2026 09:55 1019
psm15a_419.zip 30-Apr-2026 09:55 122812
psma.zip 30-Apr-2026 09:55 1375
psma9.zip 30-Apr-2026 09:55 1011
psma_419.zip 30-Apr-2026 09:55 123664
pstcn980.zip 30-Apr-2026 09:55 81589
qb2000n.zip 03-Apr-2025 08:30 76933
rpdu.zip 30-Apr-2026 09:55 89164
rssjdwn01r01.zip 30-Apr-2026 09:55 89627
rswsn01_humid_sp2.zip 30-Apr-2026 09:55 1279
rswsn01_temperature_sp2.zip 30-Apr-2026 09:55 1307
ruipu_ups.zip 30-Apr-2026 09:55 90060
sac3000.zip 30-Apr-2026 09:55 85065
sca.zip 30-Apr-2026 09:55 86672
scd.zip 21-Aug-2024 15:55 77571
schneidercompactnsx.zip 30-Apr-2026 09:55 79397
schneiderdm2300.zip 30-Apr-2026 09:55 78713
schneiderdm2365st.zip 30-Apr-2026 09:55 79587
scu.zip 30-Apr-2026 09:55 90131
scwchiller.zip 30-Apr-2026 09:55 88018
sdc.zip 30-Apr-2026 09:55 94244
sdhdbdm.zip 30-Apr-2026 09:55 82578
sdhdbmu.zip 30-Apr-2026 09:55 76954
sg2022.zip 30-Apr-2026 09:55 79116
sgc420.zip 21-Jan-2025 09:27 88957
sgc420mkii.zip 09-Jan-2025 01:48 89063
shendian.zip 30-Apr-2026 09:55 80208
sicam_p35.zip 30-Apr-2026 09:55 93079
sicamp37.zip 30-Apr-2026 09:55 94004
skmki.zip 30-Apr-2026 09:55 505
sl1882s_mz3_5_1.zip 30-Apr-2026 09:55 91703
sl1882s_mz3_5_2.zip 30-Apr-2026 09:55 92527
sl3500th3ct.zip 30-Apr-2026 09:55 84570
sl3500th3ct2.zip 30-Apr-2026 09:55 99438
sl6100th3ct.zip 30-Apr-2026 09:55 97343
sl6200th1ct2.zip 30-Apr-2026 09:55 127693
sl6200th1ct2v215.zip 30-Apr-2026 09:55 131935
sm3600b20.zip 30-Apr-2026 09:55 83833
smartli3.zip 30-Apr-2026 09:55 91289
smoke.zip 30-Apr-2026 09:55 394
smoke2.zip 30-Apr-2026 09:55 78750
smpdu.zip 30-Apr-2026 09:55 82047
smu06c.zip 30-Apr-2026 09:55 5974
smu06c_419.zip 30-Apr-2026 09:55 128361
snp1313.zip 30-Apr-2026 09:55 80360
socketagc150.zip 30-Apr-2026 09:55 105299
spc.zip 30-Apr-2026 09:55 82356
spm322020modbus.zip 21-Aug-2024 15:55 75104
spm33.zip 30-Apr-2026 09:55 85997
st6_20k.zip 30-Apr-2026 09:55 112576
suacfanbalancer.zip 30-Apr-2026 09:55 78055
subattery.zip 30-Apr-2026 09:55 83620
sunrise_eda.zip 30-Apr-2026 09:55 96734
sutemperature3.zip 30-Apr-2026 09:55 77406
taac.zip 30-Apr-2026 09:55 79434
tbea_powermeter1.zip 30-Apr-2026 09:55 78760
tbea_powermeter2.zip 30-Apr-2026 09:55 77778
tc20.zip 30-Apr-2026 09:55 92644
tclstationac.zip 30-Apr-2026 09:55 90466
tcmeter.zip 30-Apr-2026 09:55 1701
temperature.zip 30-Apr-2026 09:55 2760
temperature2.zip 30-Apr-2026 09:55 76335
temperature3.zip 30-Apr-2026 09:55 76835
temperature303mini.zip 30-Apr-2026 09:55 1281
temperature_sp.zip 30-Apr-2026 09:55 79032
temperature_sp2.zip 30-Apr-2026 09:55 81095
temtransmitter.zip 30-Apr-2026 09:55 78370
threephasemeter.zip 30-Apr-2026 09:55 76945
thse10.zip 30-Apr-2026 09:55 78919
tlsd.zip 30-Apr-2026 09:55 520
tm5530.zip 30-Apr-2026 09:55 82907
tmcontroller.zip 30-Apr-2026 09:55 178140
tmcontroller20250701.zip 30-Apr-2026 09:55 91268
tmqth2.zip 30-Apr-2026 09:55 80998
tpc_7062.zip 30-Apr-2026 09:55 80815
ug20.zip 30-Apr-2026 09:55 3646
ug30.zip 30-Apr-2026 09:55 4018
ug40.zip 30-Apr-2026 09:55 92039
uh11.zip 30-Apr-2026 09:55 86494
ul33.zip 30-Apr-2026 09:55 94682
unicom_ac.zip 30-Apr-2026 09:55 79468
unicom_ac2.zip 30-Apr-2026 09:55 83609
unicom_acrpz96.zip 30-Apr-2026 09:55 2541
unicom_coolfree.zip 30-Apr-2026 09:55 86789
unicom_coolmaster3k.zip 30-Apr-2026 09:55 87578
unicom_dps6000.zip 30-Apr-2026 09:55 4246
unicom_engine.zip 30-Apr-2026 09:55 87841
unicom_h3gbatterybalancer160.zip 30-Apr-2026 09:55 86389
unicom_hmi2796s.zip 30-Apr-2026 09:55 79933
unicom_iplu_2801bm.zip 30-Apr-2026 09:55 86050
unicom_irmsensor.zip 30-Apr-2026 09:55 80696
unicom_ll11.zip 30-Apr-2026 09:55 107111
unicom_ll13.zip 03-Apr-2025 08:35 107024
unicom_nhbaccontroller.zip 30-Apr-2026 09:55 90937
unicom_p14.zip 30-Apr-2026 09:55 80939
unicom_pdu8000.zip 30-Apr-2026 09:55 83767
unicom_powermetertype1.zip 30-Apr-2026 09:55 81800
unicom_rc.zip 30-Apr-2026 09:55 80675
unicom_spm33.zip 30-Apr-2026 09:55 82031
unicom_ups.zip 30-Apr-2026 09:55 94092
unicom_ups5000.zip 30-Apr-2026 09:55 9477
unicom_yd2018.zip 30-Apr-2026 09:55 88437
unicom_yd6600.zip 30-Apr-2026 09:55 90128
unicom_yd8771y.zip 30-Apr-2026 09:55 80446
unicom_yd8771y1.zip 30-Apr-2026 09:55 79481
unicom_yd8771yb.zip 30-Apr-2026 09:55 79223
unicom_yn194e2s4.zip 30-Apr-2026 09:55 2331
unicompowermeter.zip 30-Apr-2026 09:55 78668
unicomxjslplc.zip 30-Apr-2026 09:55 173700
unicomzyt39124.zip 30-Apr-2026 09:55 83859
unicomzytmeter.zip 30-Apr-2026 09:55 84473
ups2000.zip 30-Apr-2026 09:55 95705
ups5000.zip 30-Apr-2026 09:55 111025
ups_3u_hq_m.zip 30-Apr-2026 09:55 90091
ups_eu_hq_m.zip 30-Apr-2026 09:55 84498
upsbattery650_voltage.zip 30-Apr-2026 09:55 76863
upsbattery750_voltage.zip 30-Apr-2026 09:55 76866
upsbattery_20.zip 30-Apr-2026 09:55 247634
upsbattery_29.zip 30-Apr-2026 09:55 247473
upsbattery_30.zip 30-Apr-2026 09:55 247455
upskstar.zip 30-Apr-2026 09:55 80318
vca.zip 30-Apr-2026 09:55 79640
vtumodel.zip 30-Apr-2026 09:55 1820
vtumodelyunbase.zip 30-Apr-2026 09:55 98374
water.zip 30-Apr-2026 09:55 394
water2.zip 30-Apr-2026 09:55 79591
wkcontroller.zip 30-Apr-2026 09:55 89900
wotpclevel3.zip 30-Apr-2026 09:55 81628
wrwf_kr1110.zip 30-Apr-2026 09:55 114176
xdfreshair.zip 30-Apr-2026 09:55 80798
xdfreshair2.zip 30-Apr-2026 09:55 78511
xdfreshaircool.zip 30-Apr-2026 09:55 91678
xfc500.zip 30-Apr-2026 09:55 82285
xhb_pqa_x2.zip 30-Apr-2026 09:55 75833
xhbpqax.zip 30-Apr-2026 09:55 81136
xiangjiangxiaomuxian.zip 30-Apr-2026 09:55 108974
xinruidabat23.zip 14-Oct-2024 09:44 77475
xjbabushui.zip 30-Apr-2026 09:55 80638
xjbadianbiaotongxun.zip 30-Apr-2026 09:55 79434
xjbaerdanyuan.zip 30-Apr-2026 09:55 91461
xjbahuanguan.zip 30-Apr-2026 09:55 82969
xjbahuanjing.zip 30-Apr-2026 09:55 78369
xjbalengjitongxun.zip 30-Apr-2026 09:55 80067
xjbalengquetatongxue.zip 30-Apr-2026 09:55 78200
xjbalengquetatongxun.zip 30-Apr-2026 09:55 80134
xjbaliudanyuan.zip 30-Apr-2026 09:55 82129
xjbalouceng.zip 30-Apr-2026 09:55 95514
xjbamoduanzongguan.zip 30-Apr-2026 09:55 82313
xjbasandanyuan.zip 30-Apr-2026 09:55 83397
xjbashuichulishebeitongxun.zip 30-Apr-2026 09:55 82438
xjbasidanyuan.zip 30-Apr-2026 09:55 82151
xjbawudanyuan.zip 30-Apr-2026 09:55 89932
xjbaxulengguan.zip 30-Apr-2026 09:55 81984
xjbaxulengguantongxun.zip 30-Apr-2026 09:55 77575
xjbayidanyuan.zip 30-Apr-2026 09:55 91597
xjchangjiliejian.zip 30-Apr-2026 09:55 86043
xjdh_kl.zip 30-Apr-2026 09:55 103695
xjdh_m.zip 30-Apr-2026 09:55 96298
xjdxba500.zip 30-Apr-2026 09:55 72777
xjdxba510.zip 30-Apr-2026 09:55 82078
xjdxba511.zip 30-Apr-2026 09:55 83224
xjdxba512.zip 30-Apr-2026 09:55 83495
xjdxba513.zip 30-Apr-2026 09:55 83290
xjdxba514.zip 30-Apr-2026 09:55 83556
xjdxba515.zip 30-Apr-2026 09:55 83753
xjdxba516.zip 30-Apr-2026 09:55 84378
xjdxba517.zip 30-Apr-2026 09:55 83875
xjdxba518.zip 30-Apr-2026 09:55 82924
xjdxba519.zip 30-Apr-2026 09:55 88634
xjdxba525.zip 30-Apr-2026 09:55 83198
xjdxba526.zip 30-Apr-2026 09:55 83211
xjdxba527.zip 30-Apr-2026 09:55 83273
xjdxba528.zip 30-Apr-2026 09:55 83251
xjdxba529.zip 30-Apr-2026 09:55 83456
xjdxba530.zip 30-Apr-2026 09:55 83822
xjdxba531.zip 30-Apr-2026 09:55 81792
xjdxba532.zip 30-Apr-2026 09:55 82143
xjdxba533.zip 30-Apr-2026 09:55 82646
xjdxba534.zip 30-Apr-2026 09:55 82618
xjdxba535.zip 30-Apr-2026 09:55 86066
xjdxba536.zip 30-Apr-2026 09:55 87644
xjdxba537.zip 30-Apr-2026 09:55 83887
xjdxba538.zip 30-Apr-2026 09:55 84351
xjunicompowermeter.zip 30-Apr-2026 09:55 78264
xwpc3.zip 30-Apr-2026 09:55 78681
yananac.zip 30-Apr-2026 09:55 78404
yananbattery.zip 30-Apr-2026 09:55 90811
yd2037yr.zip 30-Apr-2026 09:55 1977
yd2037ys.zip 30-Apr-2026 09:55 86543
yd2200.zip 30-Apr-2026 09:55 97366
yd_dems_bd2_rht.zip 30-Apr-2026 09:55 106454
yd_dems_vd2.zip 30-Apr-2026 09:55 83266
yf8015.zip 30-Apr-2026 09:55 217756
yinjia.zip 30-Apr-2026 09:55 82142
yz900.zip 30-Apr-2026 09:55 83917
zhm15m.zip 30-Apr-2026 09:55 81842
zhm19m.zip 30-Apr-2026 09:55 93679
zhongtian_419.zip 30-Apr-2026 09:55 120036
zmdoc.zip 30-Apr-2026 09:55 80265
znv_datamate3000.zip 30-Apr-2026 09:55 79716
znv_humid.zip 30-Apr-2026 09:55 75796
znv_temperature.zip 30-Apr-2026 09:55 76040
znvbm41.zip 30-Apr-2026 09:55 89911
znvbm41_48.zip 30-Apr-2026 09:55 87325
znvbm41_ups.zip 30-Apr-2026 09:55 86045
znvdtms10.zip 30-Apr-2026 09:55 84518
znvh3ga0.zip 30-Apr-2026 09:55 87428
znvh3ga0_48.zip 30-Apr-2026 09:55 86519
zt310d_419.zip 30-Apr-2026 09:55 116964
zxdcmeter.zip 30-Apr-2026 09:55 83512
zxdu300_500.zip 30-Apr-2026 09:55 1446
zxdu300_500_419.zip 30-Apr-2026 09:55 123699
zxdu68_419.zip 30-Apr-2026 09:55 123018
zxdu68_t601v41_419.zip 30-Apr-2026 09:55 124057
zxdu68_t601v50_419.zip 30-Apr-2026 09:55 120397
zxm10_dth.zip 30-Apr-2026 09:55 85752
zxm10_dth_b.zip 30-Apr-2026 09:55 85502
zxmeter18.zip 30-Apr-2026 09:55 77547
zxpowermeter4.zip 30-Apr-2026 09:55 78506
zxpowermeter6.zip 30-Apr-2026 09:55 78515